Weather History for Alva, OK

Change the Weather History Date:

Thursday, October 27, 2011

  Actual Average Record
Temperature  
Mean Temperature 45 °F -  
Max Temperature 51 °F 68 °F 94 °F (1950)
Min Temperature 39 °F 44 °F 22 °F (1957)
Degree Days  
Heating Degree Days 20    
Moisture  
Dew Point 34 °F    
Average Humidity 66    
Maximum Humidity 93    
Minimum Humidity 44    
Precipitation  
Precipitation 0.00 in - - ()
Sea Level Pressure  
Sea Level Pressure 30.16 in    
Wind  
Wind Speed 14 mph (North)    
Max Wind Speed 23 mph    
Max Gust Speed 29 mph    
Visibility 10 miles    
Events      
Averages and records for this station are not official NWS values.
T = Trace of Precipitation, MM = Missing Value Source: NWS Daily Summary

Daily Weather History Graph

Daily Weather History Graph

Search for Another Location

Airport:

Trip Planner

Search our weather history database for the weather conditions in past years. The results will help you decide how hot, cold, wet, or windy it might be!

Date:

Astronomy

Oct. 27, 2011 Rise Set
Actual Time 7:53 AM CDT 6:43 PM CDT
Civil Twilight 7:26 AM CDT 7:09 PM CDT
Nautical Twilight 6:56 AM CDT 7:40 PM CDT
Astronomical Twilight 6:26 AM CDT 8:10 PM CDT
Moon 8:55 AM CDT (10/27) 7:17 PM CDT (10/27)
Length of Visible Light 11h 43m
Length of Day
10h 50m
New Moon, 1% of the Moon is Illuminated
Oct 27
New Moon
Nov 2
First Quarter
Nov 10
Full
Nov 18
Last Quarter
Nov 25
New

Hourly Weather History & Observations

Time (CDT) Temp. Windchill Dew Point Humidity Pressure Visibility Wind Dir Wind Speed Gust Speed Precip Events Conditions
12:00 AM 46.4 °F 38.3 °F 32.0 °F 57% 30.15 in 10.0 mi North 23.0 mph 27.6 mph N/A   Overcast
12:20 AM 46.4 °F 39.2 °F 32.0 °F 57% 30.16 in 10.0 mi North 18.4 mph 25.3 mph N/A   Overcast
1:00 AM 46.4 °F 39.0 °F 32.0 °F 57% 30.15 in 10.0 mi North 19.6 mph - N/A   Overcast
1:20 AM 46.4 °F 39.2 °F 32.0 °F 57% 30.15 in 10.0 mi North 18.4 mph 25.3 mph N/A   Overcast
1:40 AM 46.4 °F 38.7 °F 35.6 °F 66% 30.15 in 10.0 mi North 20.7 mph 28.8 mph N/A   Overcast
2:00 AM 44.6 °F 36.6 °F 37.4 °F 76% 30.16 in 10.0 mi North 19.6 mph 23.0 mph N/A   Overcast
2:20 AM 41.0 °F 32.8 °F 39.2 °F 93% 30.17 in 9.0 mi North 16.1 mph 23.0 mph N/A   Overcast
2:40 AM 41.0 °F 33.5 °F 39.2 °F 93% 30.16 in 7.0 mi North 13.8 mph 21.9 mph N/A   Overcast
3:00 AM 41.0 °F 33.1 °F 39.2 °F 93% 30.15 in 10.0 mi North 15.0 mph 19.6 mph N/A   Overcast
3:20 AM 41.0 °F 34.3 °F 39.2 °F 93% 30.15 in 10.0 mi North 11.5 mph - N/A   Overcast
3:40 AM 41.0 °F 34.7 °F 39.2 °F 93% 30.14 in 10.0 mi North 10.4 mph - N/A   Overcast
4:00 AM 41.0 °F 34.3 °F 39.2 °F 93% 30.14 in 10.0 mi North 11.5 mph - N/A   Overcast
4:20 AM 42.8 °F 36.2 °F 37.4 °F 81% 30.14 in 10.0 mi North 12.7 mph - N/A   Overcast
4:40 AM 42.8 °F 38.0 °F 37.4 °F 81% 30.14 in 10.0 mi North 8.1 mph - N/A   Overcast
5:00 AM 41.0 °F 34.7 °F 39.2 °F 93% 30.13 in 10.0 mi North 10.4 mph - N/A   Overcast
5:20 AM 41.0 °F 34.7 °F 37.4 °F 87% 30.13 in 10.0 mi North 10.4 mph - N/A   Mostly Cloudy
5:40 AM 41.0 °F 34.7 °F 37.4 °F 87% 30.12 in 10.0 mi North 10.4 mph - N/A   Mostly Cloudy
6:00 AM 41.0 °F 34.3 °F 37.4 °F 87% 30.13 in 10.0 mi North 11.5 mph - N/A   Overcast
6:20 AM 41.0 °F 34.7 °F 37.4 °F 87% 30.15 in 10.0 mi North 10.4 mph - N/A   Overcast
6:40 AM 41.0 °F 34.7 °F 37.4 °F 87% 30.17 in 10.0 mi NNW 10.4 mph - N/A   Overcast
7:00 AM 41.0 °F 35.8 °F 37.4 °F 87% 30.18 in 10.0 mi NNW 8.1 mph - N/A   Overcast
7:20 AM 41.0 °F 36.4 °F 37.4 °F 87% 30.17 in 10.0 mi NNW 6.9 mph - N/A   Overcast
7:40 AM 41.0 °F 34.3 °F 37.4 °F 87% 30.15 in 10.0 mi North 11.5 mph - N/A   Mostly Cloudy
8:00 AM 41.0 °F 34.7 °F 37.4 °F 87% 30.16 in 10.0 mi North 10.4 mph - N/A   Partly Cloudy
8:20 AM 41.0 °F 34.7 °F 37.4 °F 87% 30.17 in 10.0 mi North 10.4 mph - N/A   Clear
9:00 AM 41.0 °F 34.7 °F 35.6 °F 81% 30.18 in 10.0 mi North 10.4 mph - N/A   Clear
9:20 AM 42.8 °F 35.8 °F 35.6 °F 76% 30.19 in 10.0 mi North 13.8 mph 17.3 mph N/A   Clear
9:40 AM 42.8 °F 36.6 °F 35.6 °F 76% 30.18 in 10.0 mi North 11.5 mph - N/A   Clear
10:00 AM 44.6 °F 38.4 °F 35.6 °F 71% 30.19 in 10.0 mi North 12.7 mph - N/A   Clear
10:20 AM 44.6 °F 39.2 °F 35.6 °F 71% 30.20 in 10.0 mi North 10.4 mph - N/A   Clear
11:00 AM 46.4 °F 40.4 °F 35.6 °F 66% 30.19 in 10.0 mi North 13.8 mph - N/A   Clear
11:20 AM 48.2 °F - 35.6 °F 62% 30.19 in 10.0 mi North 12.7 mph 18.4 mph N/A   Clear
12:00 PM 48.2 °F - 35.6 °F 62% 30.19 in 10.0 mi North 15.0 mph 21.9 mph N/A   Partly Cloudy
12:20 PM 50.0 °F - 35.6 °F 58% 30.18 in 10.0 mi NNE 12.7 mph 19.6 mph N/A   Partly Cloudy
12:40 PM 50.0 °F - 33.8 °F 54% 30.18 in 10.0 mi North 12.7 mph 18.4 mph N/A   Clear
1:00 PM 50.0 °F - 33.8 °F 54% 30.17 in 10.0 mi NNE 12.7 mph 16.1 mph N/A   Clear
1:20 PM 50.0 °F - 32.0 °F 50% 30.15 in 10.0 mi NNE 12.7 mph - N/A   Clear
1:40 PM 50.0 °F - 33.8 °F 54% 30.14 in 10.0 mi North 12.7 mph 17.3 mph N/A   Clear
2:00 PM 50.0 °F - 32.0 °F 50% 30.14 in 10.0 mi NE 11.5 mph - N/A   Clear
2:20 PM 50.0 °F - 32.0 °F 50% 30.15 in 10.0 mi North 11.5 mph 16.1 mph N/A   Clear
2:40 PM 51.8 °F - 32.0 °F 47% 30.15 in 10.0 mi North 13.8 mph - N/A   Clear
2:55 PM 51.8 °F - 32.0 °F 47% 30.15 in 10.0 mi NNE 6.9 mph 17.3 mph N/A   Clear
3:20 PM 50.0 °F - 32.0 °F 50% 30.14 in 10.0 mi North 9.2 mph - N/A   Clear
3:40 PM 51.8 °F - 32.0 °F 47% 30.14 in 10.0 mi NNE 9.2 mph - N/A   Clear
4:00 PM 51.8 °F - 32.0 °F 47% 30.14 in 10.0 mi North 11.5 mph - N/A   Clear
4:20 PM 51.8 °F - 30.2 °F 44% 30.14 in 10.0 mi North 11.5 mph - N/A   Clear
4:40 PM 50.0 °F - 30.2 °F 47% 30.14 in 10.0 mi North 9.2 mph - N/A   Clear
5:00 PM 50.0 °F - 30.2 °F 47% 30.14 in 10.0 mi North 8.1 mph - N/A   Clear
5:20 PM 50.0 °F - 30.2 °F 47% 30.14 in 10.0 mi North 10.4 mph - N/A   Clear
5:40 PM 50.0 °F - 32.0 °F 50% 30.15 in 10.0 mi NNW 9.2 mph - N/A   Clear
6:00 PM 50.0 °F - 30.2 °F 47% 30.15 in 10.0 mi North 8.1 mph - N/A   Clear
6:20 PM 50.0 °F - 30.2 °F 47% 30.15 in 10.0 mi North 5.8 mph - N/A   Clear
6:40 PM 50.0 °F - 30.2 °F 47% 30.15 in 10.0 mi North 5.8 mph - N/A   Clear
7:00 PM 46.4 °F 43.5 °F 30.2 °F 53% 30.16 in 10.0 mi NNW 5.8 mph - N/A   Partly Cloudy
7:20 PM 46.4 °F 43.5 °F 28.4 °F 50% 30.17 in 10.0 mi NNW 5.8 mph - N/A   Partly Cloudy
7:40 PM 46.4 °F 44.3 °F 28.4 °F 50% 30.17 in 10.0 mi NNW 4.6 mph - N/A   Partly Cloudy
8:00 PM 44.6 °F 41.4 °F 28.4 °F 53% 30.18 in 10.0 mi NNW 5.8 mph - N/A   Scattered Clouds
8:20 PM 44.6 °F 42.2 °F 28.4 °F 53% 30.18 in 10.0 mi North 4.6 mph - N/A   Partly Cloudy
8:40 PM 44.6 °F 42.2 °F 28.4 °F 53% 30.19 in 10.0 mi NNW 4.6 mph - N/A   Partly Cloudy
9:00 PM 41.0 °F 38.0 °F 28.4 °F 61% 30.19 in 10.0 mi NW 4.6 mph - N/A   Clear
9:20 PM 39.2 °F 35.0 °F 28.4 °F 65% 30.19 in 10.0 mi NW 5.8 mph - N/A   Clear
9:40 PM 39.2 °F 35.9 °F 28.4 °F 65% 30.19 in 10.0 mi NW 4.6 mph - N/A   Clear
10:00 PM 37.4 °F 32.8 °F 26.6 °F 65% 30.19 in 10.0 mi NW 5.8 mph - N/A   Clear
10:20 PM 37.4 °F 32.1 °F 26.6 °F 65% 30.20 in 10.0 mi NW 6.9 mph - N/A   Clear
11:00 PM 37.4 °F 31.4 °F 26.6 °F 65% 30.21 in 10.0 mi NNW 8.1 mph - N/A   Clear
11:20 PM 39.2 °F 34.2 °F 26.6 °F 61% 30.21 in 10.0 mi NNW 6.9 mph - N/A   Clear
11:40 PM 35.6 °F 29.9 °F 26.6 °F 70% 30.22 in 10.0 mi NNW 6.9 mph - N/A   Clear